JTC232 TXKF-TJSJ

Flight info

Callsign JTC232
Flight time 1h 55m
Altitude 43000
Route SOMRR1 ANTIG M328 EMAKO/M086F450 L456 HANCY/N0480F450 L456 THANK SAALR2
Aircraft C750/M-SBDE3FGHRWXY/S

Departure

Time 2026-05-07 23:52
Airport L.F. Wade International Airport (TXKF)

Arrival

Time 2026-05-08 01:48
Airport Luis Munoz Marin International Airport (TJSJ)
Time Latitude Longitude Altitude Speed Heading
2026-05-07 23:36 32.36431 -64.66836 26 ft 0 kts 13°
2026-05-07 23:49 32.36443 -64.66829 24 ft 1 kts 46°
2026-05-07 23:49 32.36441 -64.66815 24 ft 5 kts 104°
2026-05-07 23:49 32.36392 -64.66793 25 ft 10 kts 190°
2026-05-07 23:50 32.36350 -64.66735 24 ft 13 kts 102°
2026-05-07 23:50 32.36326 -64.66599 24 ft 19 kts 101°
2026-05-07 23:50 32.36297 -64.66456 26 ft 17 kts 110°
2026-05-07 23:50 32.36250 -64.66339 24 ft 14 kts 135°
2026-05-07 23:51 32.36177 -64.66336 25 ft 9 kts 198°
2026-05-07 23:51 32.36149 -64.66384 25 ft 6 kts 280°
2026-05-07 23:51 32.36151 -64.66393 25 ft 0 kts 281°
2026-05-07 23:51 32.36170 -64.66505 25 ft 47 kts 282°
2026-05-07 23:52 32.36305 -64.67298 36 ft 138 kts 280°
2026-05-07 23:52 32.36538 -64.68465 460 ft 156 kts 282°
2026-05-07 23:52 32.36774 -64.69762 900 ft 171 kts 277°
2026-05-07 23:52 32.36982 -64.71246 1339 ft 195 kts 278°
2026-05-07 23:53 32.37252 -64.72875 2008 ft 205 kts 279°
2026-05-07 23:53 32.37555 -64.74608 2641 ft 227 kts 279°
2026-05-07 23:53 32.37889 -64.76534 3244 ft 251 kts 280°
2026-05-07 23:53 32.38240 -64.78570 4285 ft 251 kts 280°
2026-05-07 23:54 32.38581 -64.80605 5308 ft 255 kts 279°
2026-05-07 23:54 32.38591 -64.82727 6143 ft 260 kts 266°
2026-05-07 23:54 32.38447 -64.84871 7075 ft 263 kts 266°
2026-05-07 23:54 32.38334 -64.87049 8047 ft 267 kts 268°
2026-05-07 23:55 32.38231 -64.89254 9070 ft 270 kts 268°
2026-05-07 23:55 32.38117 -64.91489 10008 ft 275 kts 269°
2026-05-07 23:55 32.37997 -64.93807 10496 ft 293 kts 269°
2026-05-07 23:55 32.37869 -64.96329 10636 ft 321 kts 269°
2026-05-07 23:56 32.37697 -64.99064 10820 ft 343 kts 264°
2026-05-07 23:56 32.36860 -65.01726 11576 ft 348 kts 244°
2026-05-07 23:56 32.35918 -65.03274 12040 ft 355 kts 231°
2026-05-07 23:56 32.33935 -65.05077 12733 ft 364 kts 214°
2026-05-07 23:57 32.31711 -65.06542 13449 ft 368 kts 212°
2026-05-07 23:57 32.29442 -65.07979 14099 ft 372 kts 212°
2026-05-07 23:57 32.27162 -65.09459 14731 ft 374 kts 212°
2026-05-07 23:57 32.24885 -65.10963 15377 ft 376 kts 213°
2026-05-07 23:58 32.22587 -65.12465 16032 ft 379 kts 212°
2026-05-07 23:58 32.20264 -65.13968 16705 ft 381 kts 212°
2026-05-07 23:58 32.17933 -65.15482 17391 ft 384 kts 213°
2026-05-07 23:58 32.15585 -65.17013 18049 ft 387 kts 213°
2026-05-07 23:59 32.13218 -65.18554 18694 ft 390 kts 213°
2026-05-07 23:59 32.10857 -65.20085 19294 ft 394 kts 212°
2026-05-07 23:59 32.08444 -65.21651 19909 ft 397 kts 212°
2026-05-07 23:59 32.06009 -65.23232 20541 ft 400 kts 212°
2026-05-08 00:00 32.03560 -65.24820 21164 ft 404 kts 212°
2026-05-08 00:00 32.01080 -65.26427 21788 ft 408 kts 212°
2026-05-08 00:00 31.98581 -65.28045 22410 ft 412 kts 212°
2026-05-08 00:00 31.96057 -65.29678 23032 ft 416 kts 212°
2026-05-08 00:01 31.93512 -65.31324 23656 ft 419 kts 212°
2026-05-08 00:01 31.90945 -65.32983 24183 ft 422 kts 212°
2026-05-08 00:01 31.88359 -65.34654 24712 ft 425 kts 212°
2026-05-08 00:01 31.85755 -65.36335 25236 ft 429 kts 212°
2026-05-08 00:02 31.83132 -65.38027 25761 ft 432 kts 212°
2026-05-08 00:02 31.80488 -65.39732 26285 ft 435 kts 212°
2026-05-08 00:02 31.77824 -65.41448 26801 ft 438 kts 212°
2026-05-08 00:02 31.75136 -65.43179 27312 ft 441 kts 212°
2026-05-08 00:03 31.72435 -65.44917 27795 ft 445 kts 212°
2026-05-08 00:03 31.69699 -65.46677 28228 ft 450 kts 212°
2026-05-08 00:03 31.66941 -65.48448 28735 ft 453 kts 212°
2026-05-08 00:03 31.64159 -65.50234 29213 ft 457 kts 212°
2026-05-08 00:04 31.61359 -65.52031 29680 ft 460 kts 212°
2026-05-08 00:04 31.58579 -65.53813 30132 ft 463 kts 212°
2026-05-08 00:04 31.55739 -65.55633 30522 ft 466 kts 212°
2026-05-08 00:04 31.52885 -65.57460 30900 ft 469 kts 212°
2026-05-08 00:05 31.50012 -65.59298 31336 ft 470 kts 212°
2026-05-08 00:05 31.47143 -65.61131 31878 ft 469 kts 212°
2026-05-08 00:05 31.44282 -65.62959 32461 ft 466 kts 212°
2026-05-08 00:05 31.41440 -65.64774 33074 ft 464 kts 212°
2026-05-08 00:06 31.38605 -65.66584 33612 ft 464 kts 212°
2026-05-08 00:06 31.35777 -65.68388 34164 ft 463 kts 212°
2026-05-08 00:06 31.32948 -65.70189 34638 ft 462 kts 213°
2026-05-08 00:06 31.30125 -65.71987 35094 ft 462 kts 213°
2026-05-08 00:07 31.27298 -65.73787 35534 ft 463 kts 213°
2026-05-08 00:07 31.24463 -65.75590 35925 ft 464 kts 213°
2026-05-08 00:07 31.21627 -65.77392 36397 ft 465 kts 213°
2026-05-08 00:07 31.18784 -65.79196 36881 ft 465 kts 213°
2026-05-08 00:08 31.15945 -65.80998 37362 ft 465 kts 214°
2026-05-08 00:08 31.13104 -65.82800 37851 ft 465 kts 214°
2026-05-08 00:08 31.10261 -65.84601 38349 ft 465 kts 214°
2026-05-08 00:08 31.07421 -65.86399 38852 ft 465 kts 214°
2026-05-08 00:09 31.04573 -65.88202 39266 ft 465 kts 214°
2026-05-08 00:09 31.01727 -65.90002 39657 ft 466 kts 214°
2026-05-08 00:09 30.98875 -65.91804 40048 ft 467 kts 215°
2026-05-08 00:09 30.96019 -65.93608 40442 ft 467 kts 215°
2026-05-08 00:10 30.93162 -65.95409 40889 ft 467 kts 215°
2026-05-08 00:10 30.90305 -65.97212 41292 ft 467 kts 215°
2026-05-08 00:10 30.87444 -65.99016 41661 ft 468 kts 216°
2026-05-08 00:10 30.84615 -66.00798 42023 ft 469 kts 216°
2026-05-08 00:11 30.81743 -66.02605 42355 ft 470 kts 215°
2026-05-08 00:11 30.78866 -66.04415 42672 ft 471 kts 215°
2026-05-08 00:11 30.75986 -66.06224 43019 ft 468 kts 216°
2026-05-08 00:11 30.73111 -66.08029 43113 ft 474 kts 216°
2026-05-08 00:12 30.67215 -66.11737 43128 ft 489 kts 215°
2026-05-08 00:12 30.61131 -66.15542 43129 ft 503 kts 215°
2026-05-08 00:13 30.54940 -66.19411 43135 ft 507 kts 214°
2026-05-08 00:13 30.48220 -66.22232 43125 ft 519 kts 201°
2026-05-08 00:14 30.41200 -66.24300 43137 ft 520 kts 200°
2026-05-08 00:14 30.34237 -66.26520 43129 ft 518 kts 201°
2026-05-08 00:15 30.27246 -66.28653 43129 ft 520 kts 200°
2026-05-08 00:15 30.20264 -66.30826 43128 ft 519 kts 201°
2026-05-08 00:16 30.13270 -66.32980 43128 ft 520 kts 200°
2026-05-08 00:16 30.06281 -66.35134 43124 ft 520 kts 200°
2026-05-08 00:17 29.99328 -66.37276 43124 ft 520 kts 200°
2026-05-08 00:17 29.92334 -66.39423 43127 ft 520 kts 200°
2026-05-08 00:18 29.85336 -66.41572 43122 ft 520 kts 200°
2026-05-08 00:18 29.78338 -66.43714 43128 ft 520 kts 200°
2026-05-08 00:19 29.71334 -66.45859 43128 ft 520 kts 200°
2026-05-08 00:19 29.64335 -66.47996 43133 ft 520 kts 200°
2026-05-08 00:20 29.57332 -66.50133 43134 ft 521 kts 199°
2026-05-08 00:20 29.50317 -66.52269 43131 ft 521 kts 199°
2026-05-08 00:21 29.43313 -66.54400 43133 ft 521 kts 199°
2026-05-08 00:21 29.36352 -66.56514 43120 ft 521 kts 199°
2026-05-08 00:22 29.29344 -66.58639 43133 ft 520 kts 199°
2026-05-08 00:22 29.22351 -66.60759 43133 ft 520 kts 199°
2026-05-08 00:23 29.15346 -66.62877 43135 ft 520 kts 199°
2026-05-08 00:23 29.08354 -66.64989 43130 ft 520 kts 199°
2026-05-08 00:24 29.01354 -66.67101 43128 ft 520 kts 199°
2026-05-08 00:24 28.94350 -66.69210 43128 ft 520 kts 199°
2026-05-08 00:25 28.87356 -66.71314 43128 ft 520 kts 199°
2026-05-08 00:25 28.80395 -66.73404 43129 ft 521 kts 199°
2026-05-08 00:26 28.73384 -66.75508 43131 ft 521 kts 199°
2026-05-08 00:26 28.66368 -66.77609 43126 ft 521 kts 199°
2026-05-08 00:27 28.59353 -66.79707 43126 ft 521 kts 199°
2026-05-08 00:27 28.52340 -66.81802 43126 ft 521 kts 199°
2026-05-08 00:28 28.45333 -66.83892 43127 ft 521 kts 199°
2026-05-08 00:28 28.38323 -66.85980 43128 ft 521 kts 199°
2026-05-08 00:29 28.31307 -66.88067 43126 ft 521 kts 199°
2026-05-08 00:29 28.24334 -66.90139 43123 ft 520 kts 199°
2026-05-08 00:30 28.17327 -66.92218 43125 ft 520 kts 199°
2026-05-08 00:30 28.10324 -66.94292 43126 ft 520 kts 199°
2026-05-08 00:31 28.03318 -66.96365 43126 ft 521 kts 199°
2026-05-08 00:31 27.96302 -66.98438 43126 ft 520 kts 199°
2026-05-08 00:32 27.89293 -67.00506 43121 ft 521 kts 199°
2026-05-08 00:32 27.82284 -67.02572 43103 ft 521 kts 198°
2026-05-08 00:33 27.75266 -67.04636 43129 ft 521 kts 198°
2026-05-08 00:33 27.68237 -67.06703 43129 ft 521 kts 198°
2026-05-08 00:34 27.61262 -67.08750 43124 ft 521 kts 198°
2026-05-08 00:34 27.54241 -67.10808 43116 ft 521 kts 198°
2026-05-08 00:35 27.47224 -67.12862 43122 ft 521 kts 198°
2026-05-08 00:35 27.40207 -67.14913 43119 ft 521 kts 198°
2026-05-08 00:36 27.33185 -67.16963 43123 ft 521 kts 198°
2026-05-08 00:36 27.26168 -67.19009 43122 ft 521 kts 198°
2026-05-08 00:37 27.19146 -67.21054 43117 ft 521 kts 198°
2026-05-08 00:38 27.08512 -67.23640 43102 ft 526 kts 186°
2026-05-08 00:38 27.01190 -67.23031 43116 ft 530 kts 170°
2026-05-08 00:39 26.94068 -67.21038 43126 ft 531 kts 166°
2026-05-08 00:39 26.86832 -67.19413 43127 ft 530 kts 173°
2026-05-08 00:40 26.79580 -67.17904 43119 ft 530 kts 168°
2026-05-08 00:40 26.72356 -67.16221 43112 ft 530 kts 171°
2026-05-08 00:41 26.65108 -67.14707 43109 ft 530 kts 169°
2026-05-08 00:41 26.57880 -67.13057 43114 ft 530 kts 170°
2026-05-08 00:42 26.50638 -67.11514 43115 ft 530 kts 169°
2026-05-08 00:42 26.43450 -67.09907 43107 ft 530 kts 169°
2026-05-08 00:43 26.36207 -67.08344 43115 ft 529 kts 169°
2026-05-08 00:43 26.28975 -67.06750 43115 ft 529 kts 169°
2026-05-08 00:44 26.22965 -67.05446 43118 ft 529 kts 169°
2026-05-08 00:44 26.15737 -67.03866 43117 ft 529 kts 169°
2026-05-08 00:45 26.08505 -67.02294 43113 ft 530 kts 169°
2026-05-08 00:45 26.01278 -67.00721 43114 ft 529 kts 169°
2026-05-08 00:46 25.94039 -66.99149 43113 ft 529 kts 169°
2026-05-08 00:46 25.86808 -66.97580 43110 ft 529 kts 169°
2026-05-08 00:47 25.79581 -66.96015 43111 ft 529 kts 169°
2026-05-08 00:47 25.72341 -66.94448 43112 ft 529 kts 169°
2026-05-08 00:48 25.65155 -66.92895 43112 ft 529 kts 169°
2026-05-08 00:48 25.57924 -66.91334 43112 ft 529 kts 169°
2026-05-08 00:49 25.50680 -66.89772 43115 ft 530 kts 169°
2026-05-08 00:49 25.43438 -66.88213 43125 ft 531 kts 169°
2026-05-08 00:50 25.36186 -66.86653 43125 ft 530 kts 169°
2026-05-08 00:50 25.28937 -66.85096 43124 ft 530 kts 169°
2026-05-08 00:51 25.21689 -66.83541 43121 ft 530 kts 169°
2026-05-08 00:51 25.14444 -66.81989 43121 ft 530 kts 169°
2026-05-08 00:52 25.07197 -66.80438 43118 ft 530 kts 169°
2026-05-08 00:52 24.99947 -66.78889 43118 ft 530 kts 169°
2026-05-08 00:53 24.92702 -66.77341 43119 ft 530 kts 169°
2026-05-08 00:53 24.85495 -66.75805 43120 ft 530 kts 169°
2026-05-08 00:54 24.78245 -66.74261 43121 ft 530 kts 169°
2026-05-08 00:54 24.71004 -66.72720 43122 ft 530 kts 169°
2026-05-08 00:55 24.63757 -66.71180 43111 ft 531 kts 169°
2026-05-08 00:55 24.56513 -66.69643 43112 ft 531 kts 169°
2026-05-08 00:56 24.49260 -66.68106 43115 ft 531 kts 169°
2026-05-08 00:56 24.42003 -66.66569 43113 ft 531 kts 169°
2026-05-08 00:57 24.34753 -66.65036 43106 ft 531 kts 168°
2026-05-08 00:57 24.27493 -66.63502 43109 ft 531 kts 168°
2026-05-08 00:58 24.20230 -66.61970 43107 ft 531 kts 168°
2026-05-08 00:58 24.12971 -66.60440 43107 ft 531 kts 168°
2026-05-08 00:59 24.05710 -66.58911 43105 ft 531 kts 168°
2026-05-08 00:59 23.98453 -66.57385 43113 ft 531 kts 168°
2026-05-08 01:00 23.91247 -66.55871 43117 ft 530 kts 168°
2026-05-08 01:00 23.84000 -66.54352 43117 ft 530 kts 168°
2026-05-08 01:01 23.76753 -66.52833 43118 ft 530 kts 168°
2026-05-08 01:01 23.69498 -66.51313 43118 ft 531 kts 168°
2026-05-08 01:02 23.62237 -66.49796 43118 ft 531 kts 168°
2026-05-08 01:02 23.54980 -66.48280 43119 ft 531 kts 168°
2026-05-08 01:03 23.47722 -66.46766 43122 ft 531 kts 168°
2026-05-08 01:03 23.40460 -66.45252 43121 ft 532 kts 168°
2026-05-08 01:04 23.33185 -66.43740 43118 ft 532 kts 168°
2026-05-08 01:04 23.25956 -66.42235 43118 ft 532 kts 168°
2026-05-08 01:05 23.18684 -66.40726 43121 ft 532 kts 168°
2026-05-08 01:05 23.11404 -66.39215 43118 ft 533 kts 168°
2026-05-08 01:06 23.04113 -66.37705 43119 ft 533 kts 168°
2026-05-08 01:06 22.96823 -66.36196 43119 ft 533 kts 168°
2026-05-08 01:07 22.89534 -66.34689 43115 ft 533 kts 168°
2026-05-08 01:07 22.82253 -66.33185 43115 ft 533 kts 168°
2026-05-08 01:08 22.74962 -66.31681 43117 ft 533 kts 168°
2026-05-08 01:08 22.67672 -66.30179 43117 ft 533 kts 168°
2026-05-08 01:09 22.60386 -66.28679 43117 ft 533 kts 168°
2026-05-08 01:09 22.53102 -66.27182 43121 ft 533 kts 168°
2026-05-08 01:10 22.45847 -66.25690 43118 ft 534 kts 168°
2026-05-08 01:10 22.38528 -66.24190 43114 ft 536 kts 168°
2026-05-08 01:11 22.31205 -66.22688 43115 ft 536 kts 168°
2026-05-08 01:11 22.23883 -66.21190 43115 ft 536 kts 168°
2026-05-08 01:12 22.16546 -66.19688 43118 ft 537 kts 168°
2026-05-08 01:12 22.09214 -66.18192 43118 ft 536 kts 168°
2026-05-08 01:13 22.01872 -66.16692 43116 ft 537 kts 168°
2026-05-08 01:13 21.94535 -66.15197 43116 ft 537 kts 168°
2026-05-08 01:14 21.87179 -66.13698 43123 ft 539 kts 168°
2026-05-08 01:14 21.79816 -66.12202 43123 ft 538 kts 168°
2026-05-08 01:15 21.72460 -66.10706 43120 ft 538 kts 168°
2026-05-08 01:15 21.65101 -66.09213 43120 ft 538 kts 168°
2026-05-08 01:16 21.57739 -66.07718 43116 ft 540 kts 168°
2026-05-08 01:16 21.50359 -66.06230 43114 ft 539 kts 169°
2026-05-08 01:17 21.42870 -66.05960 43105 ft 540 kts 187°
2026-05-08 01:17 21.35609 -66.07672 43118 ft 537 kts 198°
2026-05-08 01:18 21.28412 -66.09846 43105 ft 539 kts 194°
2026-05-08 01:18 21.21041 -66.11406 43110 ft 540 kts 194°
2026-05-08 01:19 21.13764 -66.13344 43112 ft 539 kts 195°
2026-05-08 01:19 21.06430 -66.15056 43112 ft 539 kts 193°
2026-05-08 01:20 20.99125 -66.16892 43113 ft 540 kts 195°
2026-05-08 01:20 20.91796 -66.18667 43111 ft 540 kts 194°
2026-05-08 01:21 20.84472 -66.20465 43108 ft 540 kts 195°
2026-05-08 01:21 20.77146 -66.22255 43108 ft 540 kts 194°
2026-05-08 01:22 20.69876 -66.24022 42406 ft 527 kts 194°
2026-05-08 01:22 20.66336 -66.24894 41725 ft 518 kts 194°
2026-05-08 01:22 20.62852 -66.25743 41056 ft 510 kts 194°
2026-05-08 01:22 20.59401 -66.26579 40391 ft 508 kts 193°
2026-05-08 01:23 20.55952 -66.27420 39726 ft 510 kts 193°
2026-05-08 01:23 20.52476 -66.28269 39055 ft 513 kts 193°
2026-05-08 01:23 20.48985 -66.29119 38326 ft 516 kts 193°
2026-05-08 01:23 20.45481 -66.29969 37644 ft 516 kts 193°
2026-05-08 01:24 20.41978 -66.30821 36964 ft 517 kts 192°
2026-05-08 01:24 20.38456 -66.31678 36280 ft 520 kts 192°
2026-05-08 01:24 20.34924 -66.32536 35589 ft 521 kts 192°
2026-05-08 01:24 20.31388 -66.33394 34902 ft 521 kts 192°
2026-05-08 01:25 20.27892 -66.34243 34220 ft 522 kts 191°
2026-05-08 01:25 20.24305 -66.35113 33500 ft 521 kts 191°
2026-05-08 01:25 20.20766 -66.35970 32814 ft 528 kts 191°
2026-05-08 01:25 20.17176 -66.36838 32106 ft 526 kts 191°
2026-05-08 01:26 20.13645 -66.37696 31419 ft 516 kts 192°
2026-05-08 01:26 20.10218 -66.38527 30752 ft 507 kts 192°
2026-05-08 01:26 20.06811 -66.39350 30073 ft 498 kts 192°
2026-05-08 01:26 20.03458 -66.40160 29389 ft 490 kts 192°
2026-05-08 01:27 20.00143 -66.40963 28738 ft 486 kts 192°
2026-05-08 01:27 19.96857 -66.41757 28098 ft 481 kts 192°
2026-05-08 01:27 19.93608 -66.42542 27473 ft 476 kts 192°
2026-05-08 01:27 19.90393 -66.43318 26847 ft 471 kts 192°
2026-05-08 01:28 19.87207 -66.44087 26232 ft 466 kts 192°
2026-05-08 01:28 19.84061 -66.44846 25621 ft 462 kts 192°
2026-05-08 01:28 19.80945 -66.45598 25015 ft 457 kts 192°
2026-05-08 01:28 19.77855 -66.46343 24415 ft 453 kts 192°
2026-05-08 01:29 19.75826 -66.46832 24020 ft 450 kts 192°
2026-05-08 01:29 19.71766 -66.47810 23181 ft 444 kts 192°
2026-05-08 01:29 19.69774 -66.48290 22793 ft 442 kts 192°
2026-05-08 01:29 19.66794 -66.49007 22218 ft 437 kts 192°
2026-05-08 01:30 19.63841 -66.49717 21636 ft 434 kts 192°
2026-05-08 01:30 19.60903 -66.50399 21063 ft 429 kts 190°
2026-05-08 01:30 19.57956 -66.50454 20466 ft 422 kts 171°
2026-05-08 01:30 19.55129 -66.49660 19950 ft 420 kts 160°
2026-05-08 01:31 19.52376 -66.48640 19408 ft 418 kts 159°
2026-05-08 01:31 19.49669 -66.47607 18857 ft 411 kts 159°
2026-05-08 01:31 19.46982 -66.46624 18303 ft 404 kts 161°
2026-05-08 01:31 19.44317 -66.45672 17737 ft 406 kts 161°
2026-05-08 01:32 19.41661 -66.44703 17205 ft 405 kts 160°
2026-05-08 01:32 19.39001 -66.43717 16666 ft 402 kts 160°
2026-05-08 01:32 19.36367 -66.42751 16137 ft 400 kts 161°
2026-05-08 01:32 19.33750 -66.41801 15612 ft 396 kts 161°
2026-05-08 01:33 19.31160 -66.40857 15098 ft 395 kts 161°
2026-05-08 01:33 19.28577 -66.39911 14578 ft 392 kts 161°
2026-05-08 01:33 19.26003 -66.38971 13989 ft 389 kts 161°
2026-05-08 01:33 19.23456 -66.38043 13429 ft 385 kts 161°
2026-05-08 01:34 19.20963 -66.37134 12923 ft 381 kts 161°
2026-05-08 01:34 19.18466 -66.36224 12423 ft 379 kts 161°
2026-05-08 01:34 19.15973 -66.35315 11924 ft 376 kts 161°
2026-05-08 01:34 19.13472 -66.34403 11422 ft 372 kts 160°
2026-05-08 01:35 19.11115 -66.33512 10991 ft 347 kts 157°
2026-05-08 01:35 19.09065 -66.32509 10984 ft 316 kts 154°
2026-05-08 01:35 19.07075 -66.31580 10991 ft 310 kts 156°
2026-05-08 01:35 19.05097 -66.30659 10987 ft 307 kts 155°
2026-05-08 01:36 19.03147 -66.29723 10987 ft 308 kts 155°
2026-05-08 01:36 19.01177 -66.28775 10992 ft 311 kts 155°
2026-05-08 01:36 18.99194 -66.27832 10995 ft 311 kts 155°
2026-05-08 01:36 18.97218 -66.26893 10898 ft 312 kts 155°
2026-05-08 01:37 18.95227 -66.25944 10596 ft 315 kts 154°
2026-05-08 01:37 18.93240 -66.24996 10267 ft 309 kts 154°
2026-05-08 01:37 18.91288 -66.24067 9918 ft 306 kts 154°
2026-05-08 01:37 18.89372 -66.23155 9554 ft 302 kts 154°
2026-05-08 01:38 18.87452 -66.22241 9219 ft 301 kts 154°
2026-05-08 01:38 18.85562 -66.21342 8880 ft 298 kts 154°
2026-05-08 01:38 18.83668 -66.20441 8542 ft 296 kts 155°
2026-05-08 01:38 18.81801 -66.19553 8224 ft 294 kts 154°
2026-05-08 01:39 18.79928 -66.18661 7897 ft 296 kts 154°
2026-05-08 01:39 18.78072 -66.17780 7576 ft 290 kts 154°
2026-05-08 01:39 18.76226 -66.16905 7250 ft 290 kts 154°
2026-05-08 01:39 18.74267 -66.16404 6886 ft 293 kts 180°
2026-05-08 01:40 18.72301 -66.16620 6989 ft 289 kts 186°
2026-05-08 01:40 18.70295 -66.16857 6996 ft 288 kts 186°
2026-05-08 01:40 18.68290 -66.17079 6991 ft 290 kts 185°
2026-05-08 01:40 18.66277 -66.17309 6988 ft 293 kts 186°
2026-05-08 01:41 18.64242 -66.17546 6676 ft 295 kts 186°
2026-05-08 01:41 18.62231 -66.17779 6288 ft 289 kts 185°
2026-05-08 01:41 18.60252 -66.18007 5886 ft 283 kts 185°
2026-05-08 01:41 18.58294 -66.18232 5483 ft 284 kts 185°
2026-05-08 01:42 18.56340 -66.18457 4912 ft 280 kts 184°
2026-05-08 01:42 18.54418 -66.18679 4325 ft 275 kts 184°
2026-05-08 01:42 18.52523 -66.18898 3738 ft 271 kts 184°
2026-05-08 01:42 18.50659 -66.19112 3159 ft 268 kts 184°
2026-05-08 01:43 18.48857 -66.19321 2978 ft 251 kts 184°
2026-05-08 01:43 18.47131 -66.19511 2987 ft 247 kts 182°
2026-05-08 01:43 18.45495 -66.19234 2947 ft 229 kts 154°
2026-05-08 01:43 18.44262 -66.18293 2972 ft 217 kts 130°
2026-05-08 01:44 18.43541 -66.16935 2978 ft 212 kts 106°
2026-05-08 01:44 18.43372 -66.15396 2896 ft 215 kts 91°
2026-05-08 01:44 18.43366 -66.13794 2179 ft 222 kts 90°
2026-05-08 01:44 18.43363 -66.12233 1914 ft 198 kts 90°
2026-05-08 01:45 18.43361 -66.10890 1657 ft 169 kts 90°
2026-05-08 01:45 18.43362 -66.09657 1435 ft 165 kts 90°
2026-05-08 01:45 18.43362 -66.08557 1247 ft 139 kts 90°
2026-05-08 01:45 18.43360 -66.07572 1089 ft 132 kts 90°
2026-05-08 01:46 18.43359 -66.06613 932 ft 130 kts 90°
2026-05-08 01:46 18.43358 -66.05667 780 ft 131 kts 90°
2026-05-08 01:46 18.43356 -66.04721 628 ft 127 kts 89°
2026-05-08 01:46 18.43346 -66.03781 410 ft 129 kts 91°
2026-05-08 01:47 18.43353 -66.02850 285 ft 127 kts 89°
2026-05-08 01:47 18.43360 -66.01918 114 ft 127 kts 90°
2026-05-08 01:47 18.43355 -66.00997 -26 ft 121 kts 90°
2026-05-08 01:48 18.43355 -65.99858 -34 ft 37 kts 90°
2026-05-08 01:48 18.43362 -65.99620 -47 ft 25 kts 76°
2026-05-08 01:48 18.43442 -65.99552 -37 ft 12 kts 340°
2026-05-08 01:48 18.43464 -65.99629 -32 ft 12 kts 270°
2026-05-08 01:49 18.43465 -65.99727 -33 ft 16 kts 270°
2026-05-08 01:49 18.43466 -65.99854 -33 ft 17 kts 269°
2026-05-08 01:49 18.43502 -65.99916 -28 ft 5 kts 355°
2026-05-08 01:49 18.43553 -65.99932 -27 ft 13 kts 325°
2026-05-08 01:50 18.43641 -65.99980 -29 ft 15 kts 336°
2026-05-08 01:50 18.43736 -66.00002 -43 ft 13 kts 341°
2026-05-08 01:50 18.43824 -66.00040 -30 ft 14 kts 337°
2026-05-08 01:50 18.43912 -66.00079 -30 ft 14 kts 337°
2026-05-08 01:51 18.44000 -66.00118 -30 ft 14 kts 337°
2026-05-08 01:51 18.44088 -66.00158 -30 ft 15 kts 336°
2026-05-08 01:51 18.44144 -66.00182 -30 ft 4 kts 351°
2026-05-08 01:51 18.44182 -66.00151 -30 ft 8 kts 68°
2026-05-08 01:52 18.44197 -66.00112 -37 ft 10 kts 69°
2026-05-08 01:52 18.44234 -66.00017 -29 ft 14 kts 66°
2026-05-08 01:52 18.44260 -65.99934 -29 ft 5 kts 127°
2026-05-08 01:52 18.44227 -65.99925 -28 ft 5 kts 168°
2026-05-08 01:53 18.44193 -65.99933 -33 ft 8 kts 226°
2026-05-08 01:53 18.44178 -65.99933 -34 ft 0 kts 109°